TimeCDT,TemperatureF,Dew PointF,Humidity,Sea Level PressureIn,VisibilityMPH,Wind Direction,Wind SpeedMPH,Gust SpeedMPH,PrecipitationIn,Events,Conditions,WindDirDegrees,DateUTC
12:15 AM,51.8,42.8,71,30.00,10.0,NNE,3.5,-,N/A,,Clear,20,2013-10-02 05:15:00
12:35 AM,51.8,41.0,67,30.00,10.0,NNE,5.8,-,N/A,,Clear,30,2013-10-02 05:35:00
12:55 AM,51.8,41.0,67,30.01,10.0,Calm,Calm,-,N/A,,Clear,0,2013-10-02 05:55:00
1:15 AM,51.8,41.0,67,30.01,10.0,ENE,4.6,-,N/A,,Clear,60,2013-10-02 06:15:00
1:35 AM,50.0,41.0,71,30.01,10.0,ENE,3.5,-,N/A,,Clear,60,2013-10-02 06:35:00
1:55 AM,50.0,41.0,71,30.02,10.0,NE,5.8,-,N/A,,Clear,50,2013-10-02 06:55:00
2:15 AM,51.8,41.0,67,30.02,10.0,ENE,4.6,-,N/A,,Clear,60,2013-10-02 07:15:00
2:35 AM,50.0,41.0,71,30.02,10.0,NE,4.6,-,N/A,,Clear,50,2013-10-02 07:35:00
2:55 AM,48.2,41.0,76,30.02,10.0,NE,4.6,-,N/A,,Clear,40,2013-10-02 07:55:00
3:15 AM,46.4,41.0,81,30.02,10.0,NNE,3.5,-,N/A,,Clear,30,2013-10-02 08:15:00
3:35 AM,48.2,41.0,76,30.02,10.0,NE,4.6,-,N/A,,Clear,50,2013-10-02 08:35:00
3:55 AM,46.4,41.0,81,30.02,10.0,NE,4.6,-,N/A,,Clear,50,2013-10-02 08:55:00
4:15 AM,46.4,41.0,81,30.03,10.0,East,3.5,-,N/A,,Clear,80,2013-10-02 09:15:00
4:35 AM,48.2,39.2,71,30.03,10.0,East,5.8,-,N/A,,Clear,80,2013-10-02 09:35:00
4:55 AM,51.8,37.4,58,30.02,10.0,East,5.8,-,N/A,,Clear,90,2013-10-02 09:55:00
5:15 AM,51.8,35.6,54,30.03,10.0,East,4.6,-,N/A,,Clear,80,2013-10-02 10:15:00
5:35 AM,51.8,35.6,54,30.03,10.0,East,4.6,-,N/A,,Clear,100,2013-10-02 10:35:00
5:55 AM,51.8,35.6,54,30.02,10.0,East,6.9,-,N/A,,Clear,100,2013-10-02 10:55:00
6:15 AM,53.6,35.6,51,30.02,10.0,East,8.1,-,N/A,,Clear,100,2013-10-02 11:15:00
6:35 AM,53.6,35.6,51,30.02,10.0,East,8.1,-,N/A,,Clear,100,2013-10-02 11:35:00
6:55 AM,53.6,35.6,51,30.03,10.0,East,6.9,-,N/A,,Clear,100,2013-10-02 11:55:00
7:15 AM,55.4,35.6,47,30.03,10.0,East,6.9,-,N/A,,Clear,100,2013-10-02 12:15:00
7:35 AM,55.4,37.4,51,30.03,10.0,ESE,5.8,-,N/A,,Mostly Cloudy,110,2013-10-02 12:35:00
7:55 AM,57.2,35.6,44,30.03,10.0,ESE,6.9,-,N/A,,Overcast,120,2013-10-02 12:55:00
8:15 AM,59.0,35.6,42,30.03,10.0,ESE,11.5,-,N/A,,Overcast,120,2013-10-02 13:15:00
8:35 AM,60.8,33.8,36,30.03,10.0,ESE,10.4,-,N/A,,Mostly Cloudy,110,2013-10-02 13:35:00
8:55 AM,62.6,35.6,37,30.03,10.0,ESE,12.7,-,N/A,,Mostly Cloudy,120,2013-10-02 13:55:00
9:15 AM,64.4,35.6,34,30.03,10.0,ESE,13.8,19.6,N/A,,Scattered Clouds,120,2013-10-02 14:15:00
9:35 AM,66.2,35.6,32,30.02,10.0,ESE,15.0,23.0,N/A,,Partly Cloudy,110,2013-10-02 14:35:00
9:55 AM,68.0,35.6,30,30.02,10.0,ESE,13.8,-,N/A,,Mostly Cloudy,120,2013-10-02 14:55:00
10:15 AM,69.8,35.6,28,30.02,10.0,ESE,10.4,19.6,N/A,,Mostly Cloudy,120,2013-10-02 15:15:00
10:35 AM,69.8,35.6,28,30.02,10.0,SE,13.8,27.6,N/A,,Mostly Cloudy,130,2013-10-02 15:35:00
10:55 AM,71.6,32.0,23,30.01,10.0,ESE,13.8,26.5,N/A,,Overcast,120,2013-10-02 15:55:00
11:15 AM,73.4,32.0,22,30.01,10.0,SE,16.1,24.2,N/A,,Mostly Cloudy,130,2013-10-02 16:15:00
11:35 AM,73.4,35.6,25,30.01,10.0,SE,9.2,21.9,N/A,,Overcast,130,2013-10-02 16:35:00
11:55 AM,73.4,32.0,22,30.00,10.0,SE,15.0,-,N/A,,Overcast,140,2013-10-02 16:55:00
12:15 PM,75.2,33.8,22,29.99,10.0,SE,12.7,20.7,N/A,,Scattered Clouds,140,2013-10-02 17:15:00
12:35 PM,77.0,35.6,22,29.98,9.0,SE,16.1,24.2,N/A,,Clear,130,2013-10-02 17:35:00
12:55 PM,77.0,37.4,24,29.97,10.0,SE,12.7,24.2,N/A,,Partly Cloudy,140,2013-10-02 17:55:00
1:15 PM,78.8,41.0,26,29.96,10.0,SE,19.6,25.3,N/A,,Scattered Clouds,140,2013-10-02 18:15:00
1:35 PM,78.8,42.8,28,29.95,10.0,SE,12.7,21.9,N/A,,Partly Cloudy,140,2013-10-02 18:35:00
1:55 PM,80.6,46.4,30,29.94,10.0,SSE,16.1,21.9,N/A,,Clear,160,2013-10-02 18:55:00
2:15 PM,78.8,48.2,34,29.93,10.0,SE,17.3,24.2,N/A,,Clear,140,2013-10-02 19:15:00
2:35 PM,80.6,50.0,34,29.92,10.0,SSE,12.7,23.0,N/A,,Clear,150,2013-10-02 19:35:00
2:55 PM,80.6,53.6,39,29.90,10.0,South,20.7,26.5,N/A,,Clear,170,2013-10-02 19:55:00
3:15 PM,80.6,53.6,39,29.89,10.0,SSE,18.4,26.5,N/A,,Clear,160,2013-10-02 20:15:00
3:35 PM,82.4,55.4,39,29.88,10.0,South,16.1,28.8,N/A,,Clear,170,2013-10-02 20:35:00
3:55 PM,82.4,57.2,42,29.87,10.0,South,18.4,25.3,N/A,,Clear,180,2013-10-02 20:55:00
4:15 PM,82.4,57.2,42,29.86,10.0,SSE,18.4,24.2,N/A,,Clear,160,2013-10-02 21:15:00
4:35 PM,82.4,59.0,45,29.85,10.0,SSE,16.1,-,N/A,,Clear,160,2013-10-02 21:35:00
4:55 PM,80.6,59.0,48,29.84,10.0,South,13.8,24.2,N/A,,Clear,170,2013-10-02 21:55:00
5:15 PM,82.4,60.8,48,29.84,10.0,South,19.6,-,N/A,,Clear,170,2013-10-02 22:15:00
5:35 PM,80.6,60.8,51,29.85,10.0,South,15.0,20.7,N/A,,Partly Cloudy,170,2013-10-02 22:35:00
5:55 PM,80.6,60.8,51,29.84,10.0,SSE,16.1,-,N/A,,Clear,160,2013-10-02 22:55:00
6:15 PM,78.8,60.8,54,29.83,10.0,South,11.5,-,N/A,,Partly Cloudy,170,2013-10-02 23:15:00
6:35 PM,77.0,60.8,57,29.84,10.0,SSE,10.4,-,N/A,,Clear,160,2013-10-02 23:35:00
6:55 PM,77.0,60.8,57,29.83,10.0,SSE,11.5,17.3,N/A,,Clear,160,2013-10-02 23:55:00
7:15 PM,75.2,62.6,65,29.83,9.0,SSE,9.2,-,N/A,,Clear,160,2013-10-03 00:15:00
7:35 PM,75.2,62.6,65,29.83,10.0,SSE,10.4,-,N/A,,Partly Cloudy,160,2013-10-03 00:35:00
7:55 PM,75.2,60.8,61,29.83,10.0,SSE,10.4,-,N/A,,Partly Cloudy,160,2013-10-03 00:55:00
8:15 PM,75.2,60.8,61,29.83,10.0,SSE,10.4,-,N/A,,Scattered Clouds,160,2013-10-03 01:15:00
8:35 PM,75.2,60.8,61,29.83,10.0,South,11.5,-,N/A,,Clear,170,2013-10-03 01:35:00
8:55 PM,73.4,60.8,65,29.83,10.0,South,13.8,-,N/A,,Clear,170,2013-10-03 01:55:00
9:15 PM,73.4,60.8,65,29.84,10.0,SSE,11.5,-,N/A,,Mostly Cloudy,160,2013-10-03 02:15:00
9:35 PM,73.4,60.8,65,29.83,-9999.0,South,11.5,-,N/A,,Mostly Cloudy,170,2013-10-03 02:35:00
9:55 PM,73.4,62.6,69,29.83,10.0,South,12.7,-,N/A,,Scattered Clouds,180,2013-10-03 02:55:00
10:15 PM,71.6,62.6,73,29.84,10.0,South,11.5,-,N/A,,Clear,180,2013-10-03 03:15:00
10:35 PM,69.8,62.6,78,29.84,10.0,South,9.2,-,N/A,,Partly Cloudy,180,2013-10-03 03:35:00
10:55 PM,69.8,62.6,78,29.84,10.0,South,9.2,-,N/A,,Partly Cloudy,180,2013-10-03 03:55:00
11:15 PM,69.8,62.6,78,29.83,10.0,South,10.4,-,N/A,,Partly Cloudy,190,2013-10-03 04:15:00
11:35 PM,68.0,62.6,83,29.83,10.0,South,9.2,-,N/A,,Clear,190,2013-10-03 04:35:00
11:55 PM,68.0,62.6,83,29.84,10.0,South,9.2,-,N/A,,Clear,180,2013-10-03 04:55:00